#timestamp,LO_Frequency,Hit 
1504792815.2,286047005.9,N
1504792835.0,286047001.6,N
1504792835.9,286047001.6,N
1504792855.8,286046998.4,N
1504792875.6,286046999.4,N
1504792895.4,286046998.6,N
1504792915.3,286047000.9,N
1504792935.1,286046996.7,N
1504792936.0,286046996.7,N
1504792955.8,286046999.5,N
1504792975.7,286046998.3,N
1504792995.5,286046996.7,N
1504793015.3,286046995.4,N
1504793035.2,286046997.8,N
1504793055.9,286047001.9,N
1504793075.7,286047002.5,N
1504793095.5,286047004.9,N
1504793115.4,286047003.0,N
1504793135.2,286047003.1,N
1504793155.0,286047003.2,N
1504793155.9,286047003.2,N
1504793175.8,286047000.1,N
1504793195.6,286047004.0,N
1504793215.4,286047010.2,P
1504793235.3,286047006.3,N
1504793255.1,286047004.5,N
1504793275.8,286047005.1,N
1504793295.7,286047002.4,N
1504793315.5,286047000.4,N
1504793335.3,286046997.8,N
1504793355.2,286046998.1,N
1504793375.9,286047000.0,N
1504793395.7,286046999.0,N
1504793415.6,286046997.1,N
1504793435.4,286046995.8,N
1504793455.2,286046993.3,N
1504793475.1,286046997.9,N
1504793476.0,286046997.9,N
1504793495.8,286046997.8,N
1504793515.6,286047002.8,N
1504793535.4,286046999.7,N
1504793555.3,286047004.0,N
1504793575.1,286047000.7,N
1504793595.8,286046998.5,N
1504793615.7,286047004.0,N
1504793635.5,286047001.3,N
1504793655.3,286047000.1,N
1504793675.2,286047000.6,N
1504793695.9,286047000.2,N
1504793715.7,286047001.3,N
1504793735.6,286047003.9,N
1504793755.4,286047002.6,N
1504793775.2,286047005.4,N
1504793795.1,286047009.2,N
1504793796.0,286047009.2,N
1504793815.8,286047009.5,N
1504793835.6,286047008.7,N
1504793855.5,286047008.8,N
1504793875.3,286047004.5,N
1504793895.1,286047008.8,N
1504793915.8,286047008.7,N
1504793935.7,286047007.4,N
1504793955.5,286047007.3,N
1504793975.3,286047003.6,N
1504793995.2,286047005.1,N
1504794015.9,286047005.5,N
1504794035.7,286047007.5,N
1504794055.6,286047005.4,N
1504794075.4,286047008.3,N
1504794095.2,286047010.3,P
1504794115.1,286047003.5,N
1504794116.0,286047003.5,N
1504794135.8,286047005.8,N
1504794155.6,286047003.3,N
1504794175.5,286047003.4,N
1504794195.3,286047001.0,N
1504794215.1,286046999.1,N
1504794235.9,286046997.4,N
1504794255.7,286046999.0,N
1504794275.5,286046996.8,N
1504794295.4,286047001.1,N
1504794315.2,286047002.8,N
1504794335.0,286046999.9,N
1504794335.9,286046999.9,N
1504794355.7,286047002.6,N
1504794375.6,286047001.1,N
1504794395.4,286046999.8,N
1504794415.2,286046998.9,N
1504794435.1,286046997.2,N
1504794436.0,286046997.2,N
1504794455.8,286047000.7,N
1504794475.6,286046997.4,N
1504794495.5,286046999.4,N
1504794515.3,286046996.6,N
1504794535.1,286047003.9,N
1504794555.9,286047000.7,N
1504794575.7,286046999.0,N
1504794595.5,286046997.7,N
1504794615.4,286046997.4,N
1504794635.2,286046997.2,N
1504794655.0,286046993.3,N
1504794655.9,286046993.3,N
1504794675.8,286046996.0,N
1504794695.6,286046994.8,N
1504794715.4,286046993.9,N
1504794735.2,286046995.5,N
1504794755.1,286046996.9,N
1504794756.0,286046996.9,N
1504794775.8,286046995.2,N
1504794795.6,286046992.5,N
1504794815.5,286046996.2,N
1504794835.3,286046999.2,N
1504794855.1,286046997.7,N
1504794875.9,286046997.7,N
1504794895.7,286046997.1,N
1504794915.5,286047001.6,N
1504794935.4,286047004.1,N
1504794955.2,286047000.6,N
1504794975.0,286046995.7,N
1504794975.9,286046995.7,N
1504794995.8,286046991.9,N
1504795015.6,286046993.5,N
1504795035.4,286046997.4,N
1504795055.3,286046998.5,N
1504795075.1,286046998.9,N
1504795076.0,286046998.9,N
1504795095.8,286047000.9,N
1504795115.7,286046998.4,N
1504795135.5,286046998.5,N
1504795155.3,286046998.9,N
1504795175.2,286046994.9,N
1504795195.9,286046996.1,N
1504795215.7,286046993.9,N
1504795235.5,286046993.8,N
1504795255.4,286046991.9,N
1504795275.2,286046994.9,N
1504795295.0,286046991.7,N
1504795295.9,286046991.7,N
1504795315.8,286046996.0,N
1504795335.6,286046997.4,N
1504795355.4,286046993.9,N
1504795375.3,286046990.5,P
1504795395.1,286046995.1,N
1504795415.8,286046999.1,N
1504795435.7,286047001.1,N
1504795455.5,286047000.3,N
1504795475.3,286046997.2,N
1504795495.2,286046997.6,N
1504795515.0,286046997.1,N
1504795515.9,286046997.1,N
1504795535.7,286046997.8,N
1504795555.6,286046995.1,N
1504795575.4,286046999.1,N
1504795595.2,286046995.6,N
1504795615.1,286046997.3,N
1504795616.0,286046997.3,N
1504795635.8,286046999.2,N
1504795655.6,286046996.1,N
1504795675.5,286046997.0,N
1504795695.3,286047000.8,N
1504795715.1,286046998.0,N
1504795735.9,286046995.3,N
1504795755.7,286046996.3,N
1504795775.5,286046997.7,N
1504795795.3,286046998.5,N
1504795815.2,286046998.8,N
1504795835.0,286046999.8,N
1504795835.9,286046999.8,N
1504795855.7,286046996.9,N
1504795875.6,286047000.0,N
1504795895.4,286047002.6,N
1504795915.2,286047000.2,N
1504795935.1,286047000.4,N
1504795936.0,286047000.4,N
1504795955.8,286046998.4,N
1504795975.6,286047002.1,N
1504795995.5,286047002.3,N
1504796015.3,286046998.5,N
1504796035.1,286046998.2,N
1504796055.9,286046998.7,N
1504796075.7,286046998.1,N
1504796095.5,286047000.5,N
1504796115.4,286047000.5,N
1504796135.2,286047000.7,N
1504796155.0,286047002.6,N
1504796155.9,286047002.6,N
1504796175.7,286047001.4,N
1504796195.6,286047005.9,N
1504796215.4,286047002.1,N
1504796235.2,286047003.5,N
1504796255.1,286047006.3,N
1504796256.0,286047006.3,N
1504796275.8,286047003.0,N
1504796295.6,286047001.7,N
1504796315.5,286047002.6,N
1504796335.3,286047000.1,N
1504796355.1,286046999.7,N
1504796375.9,286047001.2,N
1504796395.7,286046998.5,N
